Regional Weather Roundup
Issued by NWS

Home | Current Version | Previous Version | Graphics & Text | Print | Product List | Glossary On
Versions: 1 2 3 4 5 6 7 8 9 10 11 12 13 14 15 16 17 18 19 20 21 22 23 24 25 26 27 28 29 30 31 32 33 34 35 36 37 38 39 40 41 42 43 44 45 46 47 48 49 50
163
ASUS43 KLOT 241008
RWRIL

ILLINOIS REGIONAL WEATHER ROUNDUP
NATIONAL WEATHER SERVICE CHICAGO/ROMEOVILLE IL
500 AM CDT FRI MAR 24 2017

NOTE: "FAIR" INDICATES FEW OR NO CLOUDS BELOW 12,000 FEET WITH NO
SIGNIFICANT WEATHER AND/OR OBSTRUCTIONS TO VISIBILITY.

* THESE STATIONS ARE NOT UNDER NWS QUALITY CONTROL. THEY ALSO MAY NOT
  REPORT WEATHER SUCH AS PRECIPITATION OR FOG.

ILZ001-002-007-009-015-016-024-241100-
NORTHWEST ILLINOIS

CITY           SKY/WX    TMP DP  RH WIND       PRES   REMARKS
MOLINE         PTCLDY    53  44  71 S12       29.84F
STERLING*      CLOUDY    49  43  80 CALM      29.88S
SAVANNA*       CLOUDY    45  41  86 CALM      29.85S
$$

ILZ003-004-008-010-011-017-018-241100-
NORTH CENTRAL ILLINOIS

CITY           SKY/WX    TMP DP  RH WIND       PRES   REMARKS
ROCKFORD       CLOUDY    46  40  79 S7        29.89F
FREEPORT*      CLOUDY    47  42  82 S13       29.87F
ROCHELLE*      PTCLDY    44  39  85 S9        29.89F
DE KALB*       PTCLDY    44  39  83 S16       29.90S
PERU*          PTCLDY    45  40  81 S15       29.92S
$$

ILZ005-006-012>014-019>023-241100-
NORTHEAST ILLINOIS

CITY           SKY/WX    TMP DP  RH WIND       PRES   REMARKS
CHICAGO-OHARE  CLOUDY    49  39  68 S9        29.90F
CHICAGO-MIDWAY MOCLDY    49  40  71 S10       29.92F
AURORA         CLOUDY    45  38  76 S10       29.91F
LANSING*       CLOUDY    45  40  83 S9        29.94F
JOLIET*        CLOUDY    51  43  73 S9        29.94R
WAUKEGAN       CLOUDY    50  41  71 SW16      29.89S
DUPAGE AIRPORT MOCLDY    47  41  80 S10       29.90F
KANKAKEE*      CLOUDY    48  41  75 CALM      29.97S
WHEELING       PTCLDY    46  39  76 S5        29.92F
MORRIS*        CLOUDY    46  39  78 S6        29.92S
ROMEOVILLE*    CLOUDY    46  43  87 S9        29.93R
NORTHERLY ISL    N/A     48  37  65 S6          N/A
$$

LMZ740>746-241100-
SOUTHERN LAKE MICHIGAN

STATION/POSITION SKY/WX   TEMP    WIND        PRES    VSBY  WAVE
                          AIR SEA DIR/SP/G                  HT/PER
                          (F)     (DEG/KT/KT) (MB)    (MI)  (FT/S)
HARRISON CRIB              47     180/ 21/ 22   N/A
BURNHAM HARBOR             49     190/  8/ 10   N/A
CALUMET HARBOR             47     170/  7/ 10 1012.7F
BURNS HARBOR               50     180/ 14/ 20 1014.2F
MICHIGAN CITY              50     160/ 10/ 16   N/A
$$

ILZ025>027-034>036-040-047-049-050-058-095>099-241100-
WEST-CENTRAL ILLINOIS

CITY           SKY/WX    TMP DP  RH WIND       PRES   REMARKS
QUINCY         CLOUDY    54  47  77 S8        29.91R
GALESBURG*     CLOUDY    46  42  85 SE6       29.89S
MACOMB*        PTCLDY    43  42  94 SE8       29.92S
JACKSONVILLE*  PTCLDY    49  44  81 S8        29.92S
PITTSFIELD*    CLOUDY    50  45  83 SE5       29.91S
$$

ILZ028>032-037-038-041>044-048-051>054-059>061-241100-
CENTRAL ILLINOIS

CITY           SKY/WX    TMP DP  RH WIND       PRES   REMARKS
PONTIAC        PTCLDY    51  45  79 S6        29.95R
BLOOMINGTON    CLOUDY    50  44  80 S18       29.95S
DECATUR        CLOUDY    52  44  74 S14       29.96R
PEORIA         CLOUDY    46  41  82 S7        29.93R
LACON*         CLEAR     47  42  82 SW5       29.92R
LINCOLN*       CLOUDY    44  42  93 S5        29.96R
SPRINGFIELD    CLOUDY    52  45  77 S12       29.95R
TAYLORVILLE    CLOUDY    52  46  82 S14       29.95S
$$

ILZ033-039-045-046-055>057-062-063-241100-
EAST-CENTRAL ILLINOIS

CITY           SKY/WX    TMP DP  RH WIND       PRES   REMARKS
CHAMPAIGN      PTCLDY    54  44  69 S13       29.98R
RANTOUL*       CLOUDY    50  45  82 S8        29.98R
MATTOON        PTCLDY    54  46  74 S16G25    29.97S
PARIS*         CLOUDY    54  46  75 S21       30.01R
$$

ILZ079-100>102-241100-
SOUTHWEST ILLINOIS

CITY           SKY/WX    TMP DP  RH WIND       PRES   REMARKS
ALTON          CLOUDY    46  42  85 NE3       29.96R
BELLEVILLE     CLOUDY    54  52  93 S7        29.95R
CAHOKIA*       CLEAR     56  48  74 SE7       29.94R
SPARTA*        CLEAR     64  52  66 S15G23    29.99R
$$

ILZ064>066-069>071-074>076-080>082-084>086-088>090-092>094-241100-
SOUTH-CENTRAL ILLINOIS

CITY           SKY/WX    TMP DP  RH WIND       PRES   REMARKS
CARBONDALE     CLEAR     61  52  72 S18G24    30.00S
CAIRO*         CLEAR     64  55  72 S17G26    30.05S
EFFINGHAM*     CLOUDY    53  47  80 SE9       30.01S
MARION         CLEAR     63  54  72 S21G29    30.02S
MT. VERNON     CLEAR     55  49  80 S7        30.01R
CENTRALIA*     PTCLDY    55  49  81 S12       29.98S
SALEM*         CLOUDY    57  47  70 S6        29.99S
METROPOLIS*    CLEAR     64  55  73 S9        30.08R
$$

ILZ067-068-072-073-078-083-087-091-241100-
SOUTHEAST ILLINOIS

CITY           SKY/WX    TMP DP  RH WIND       PRES   REMARKS
LAWRENCEVILLE  CLEAR     55  47  74 S15       30.05R
FLORA*         CLEAR     54  48  80 S9        30.02R
FAIRFIELD*     PTCLDY    56  49  77 S7        30.01S
HARRISBURG*    CLEAR     61  53  74 S14G20    30.04S
ROBINSON*      CLEAR     55  46  70 S12G17    30.04S
CARMI*         CLEAR     54  48  82 S14       30.03S
$$

ABBREVIATIONS USED IN REMARKS
   TC - TEMPERATURE IN CELSIUS
  WCI - WIND CHILL INDEX
   HX - HEAT INDEX
  VSB - VISIBILITY
$$





USA.gov is the U.S. government's official web portal to all federal, state and local government web resources and services.